Regional Weather Roundup
Issued by NWS

Home | Current Version | Previous Version | Text Only | Print | Product List | Glossary Off
Versions: 1 2 3 4 5 6 7 8 9 10 11 12 13 14 15 16 17 18 19 20 21 22 23 24 25 26 27 28 29 30 31 32 33 34 35 36 37 38 39 40 41 42 43 44 45 46 47 48 49 50

000
ASUS43 KFSD 271910
RWRSD

WEATHER ROUNDUP FOR SOUTH DAKOTA
NATIONAL WEATHER SERVICE SIOUX FALLS SD
100 PM CST TUE JAN 27 2015

NOTE: "FAIR" INDICATES FEW OR NO CLOUDS BELOW 12,000 FEET WITH NO
SIGNIFICANT WEATHER AND/OR OBSTRUCTIONS TO VISIBILITY.


SDZ001>005-009-010-012>017-272000-
NORTHWEST AND NORTH CENTRAL SOUTH DAKOTA

CITY           SKY/WX    TMP DP  RH WIND       PRES   REMARKS
BUFFALO          N/A     63  31  30 W9        29.84F
FAITH            N/A     67  28  23 W12       29.88F
MOBRIDGE       SUNNY     47  36  65 S8        29.87F
$$

SDZ012>016-024>037-041>051-057-063-072>074-272000-
SOUTHWEST AND SOUTH CENTRAL SOUTH DAKOTA

CITY           SKY/WX    TMP DP  RH WIND       PRES   REMARKS
RAPID CTY ARPT NOT AVBL
PIERRE         SUNNY     51  34  52 S3        29.91F
CUSTER         SUNNY     64  20  18 W7        30.04F
ELLSWORTH AFB  MOSUNNY   71  26  18 E3        29.92F
PHILIP         SUNNY     65  31  28 SW5       29.90F
PINE RIDGE     SUNNY     63  30  28 W12       29.98F
SPEARFISH      FAIR      70  25  18 NW7       29.96F
WINNER         FAIR      59  35  40 CALM      29.93F
$$

SDZ004>011-016>023-039-040-272000-
NORTHEAST SOUTH DAKOTA

CITY           SKY/WX    TMP DP  RH WIND       PRES   REMARKS
ABERDEEN       SUNNY     42  35  76 S17       29.97F
WATERTOWN      SUNNY     36  31  82 S15       30.01F
SISSETON         N/A     30  30 100 S16       30.03F WCI  19
$$

SDZ017-020-022-023-036>040-048>070-272000-
SOUTHEAST SOUTH DAKOTA

CITY           SKY/WX    TMP DP  RH WIND       PRES   REMARKS
SIOUX FALLS    CLOUDY    33  31  92 SE12      30.06F WCI  24
HURON          SUNNY     44  35  70 SE15G23   29.97F
CHAMBERLAIN    SUNNY     48  35  61 SE8       29.94F
MITCHELL       SUNNY     46  37  71 SE15      29.99F
YANKTON        SUNNY     48  34  57 SE16      30.03F
$$

ABBREVIATIONS USED IN REMARKS
   TC - TEMPERATURE IN CELSIUS
  WCI - WIND CHILL INDEX
   HX - HEAT INDEX
  VSB - VISIBILITY



USA.gov is the U.S. government's official web portal to all federal, state and local government web resources and services.